Change the Weather History Date:

Saturday, March 8, 2014

  Actual Average Record
Temperature  
Mean Temperature 48 °F -  
Max Temperature 68 °F 60 °F 84 °F (1974)
Min Temperature 30 °F 36 °F 18 °F (1966)
Degree Days  
Heating Degree Days 16    
Moisture  
Dew Point 38 °F    
Average Humidity 70    
Maximum Humidity 100    
Minimum Humidity 33    
Precipitation  
Precipitation 0.01 in - - ()
Sea Level Pressure  
Sea Level Pressure 30.02 in    
Wind  
Wind Speed 3 mph (SW)    
Max Wind Speed 12 mph    
Max Gust Speed -    
Visibility 9 miles    
Events      
Averages and records for this station are not official NWS values.
T = Trace of Precipitation, MM = Missing Value Source: NWS Daily Summary

Daily Weather History Graph

Daily Weather History Graph

Search for Another Location

Airport or City:

Trip Planner

Search our weather history database for the weather conditions in past years. The results will help you decide how hot, cold, wet, or windy it might be!

Date:

Astronomy

Mar. 08, 2014 Rise Set
Actual Time 6:35 AM EST 6:16 PM EST
Civil Twilight 6:09 AM EST 6:41 PM EST
Nautical Twilight 5:40 AM EST 7:11 PM EST
Astronomical Twilight 5:11 AM EST 7:40 PM EST
Moon 11:28 AM EST (3/8) 12:59 AM EST (3/8)
Length of Visible Light 12h 32m
Length of Day
11h 41m
First Quarter, 51% of the Moon is Illuminated
Mar 8
First Quarter
Mar 16
Full
Mar 23
Last Quarter
Mar 30
New
Apr 7
First Quarter

Hourly Weather History & Observations

Time (EST) Temp. Windchill Dew Point Humidity Pressure Visibility Wind Dir Wind Speed Gust Speed Precip Events Conditions
12:15 AM 36.1 °F 32.3 °F 32.9 °F 88% 29.96 in 10.0 mi NW 4.6 mph - N/A   Clear
12:35 AM 35.2 °F 31.2 °F 33.3 °F 92% 29.97 in 10.0 mi NW 4.6 mph - N/A   Clear
12:55 AM 34.7 °F 31.8 °F 33.4 °F 95% 29.97 in 10.0 mi NNW 3.5 mph - N/A   Clear
1:15 AM 33.8 °F - 32.9 °F 96% 29.98 in 10.0 mi Calm Calm - N/A   Clear
1:35 AM 33.8 °F 29.6 °F 32.9 °F 96% 29.97 in 10.0 mi NW 4.6 mph - N/A   Clear
1:55 AM 33.4 °F 30.4 °F 33.1 °F 99% 29.98 in 10.0 mi NW 3.5 mph - N/A   Clear
2:15 AM 33.8 °F 30.8 °F 32.5 °F 95% 29.99 in 10.0 mi WNW 3.5 mph - N/A   Clear
2:35 AM 33.8 °F 29.6 °F 32.9 °F 96% 30.00 in 10.0 mi WNW 4.6 mph - N/A   Clear
2:55 AM 33.8 °F 30.8 °F 33.1 °F 97% 30.01 in 10.0 mi WNW 3.5 mph - N/A   Clear
3:15 AM 33.8 °F 29.6 °F 32.9 °F 96% 30.01 in 10.0 mi NW 4.6 mph - N/A   Clear
3:35 AM 33.4 °F 29.1 °F 32.5 °F 96% 30.02 in 10.0 mi NW 4.6 mph - N/A   Clear
3:55 AM 33.1 °F - 32.2 °F 96% 30.01 in 10.0 mi Calm Calm - N/A   Clear
4:15 AM 32.4 °F - 32.0 °F 99% 30.02 in 10.0 mi Calm Calm - N/A   Clear
4:35 AM 32.0 °F - 31.8 °F 99% 30.02 in 7.0 mi Calm Calm - N/A   Clear
4:55 AM 32.0 °F - 32.0 °F 100% 30.02 in 10.0 mi Calm Calm - N/A   Clear
5:15 AM 31.3 °F - 31.1 °F 99% 30.03 in 5.0 mi Calm Calm - N/A   Clear
5:35 AM 31.3 °F - 31.1 °F 99% 30.04 in 4.0 mi Calm Calm - N/A   Clear
5:55 AM 30.9 °F - 30.9 °F 100% 30.03 in 4.0 mi Calm Calm - N/A   Clear
6:15 AM 31.1 °F - 31.1 °F 100% 30.03 in 4.0 mi Calm Calm - N/A   Clear
6:35 AM 31.1 °F - 31.1 °F 100% 30.04 in 4.0 mi Calm Calm - N/A   Clear
6:55 AM 31.5 °F - 31.5 °F 100% 30.05 in 3.0 mi Calm Calm - N/A   Clear
7:15 AM 32.0 °F - 32.0 °F 100% 30.06 in 5.0 mi Calm Calm - N/A   Clear
7:35 AM 32.4 °F - 32.4 °F 100% 30.07 in 5.0 mi Calm Calm - N/A   Clear
7:55 AM 34.0 °F - 34.0 °F 100% 30.08 in 10.0 mi Calm Calm - N/A   Clear
8:15 AM 36.5 °F - 34.7 °F 93% 30.08 in 10.0 mi Calm Calm - N/A   Clear
8:35 AM 38.8 °F - 35.8 °F 89% 30.09 in 10.0 mi Calm Calm - 0.01 in   Clear
8:55 AM 42.3 °F - 35.4 °F 77% 30.09 in 10.0 mi Calm Calm - 0.01 in   Clear
9:15 AM 43.7 °F 42.1 °F 36.0 °F 74% 30.09 in 10.0 mi South 3.5 mph - N/A   Clear
9:35 AM 45.5 °F 43.2 °F 35.8 °F 69% 30.09 in 10.0 mi SSW 4.6 mph - N/A   Clear
9:55 AM 47.3 °F - 36.9 °F 67% 30.09 in 10.0 mi SW 3.5 mph - N/A   Clear
10:15 AM 50.0 °F - 39.6 °F 67% 30.09 in 10.0 mi SW 4.6 mph - N/A   Clear
10:35 AM 51.1 °F - 40.3 °F 67% 30.08 in 10.0 mi Calm Calm - N/A   Clear
10:55 AM 53.4 °F - 41.4 °F 64% 30.07 in 10.0 mi Calm Calm - N/A   Clear
11:15 AM 54.9 °F - 41.5 °F 61% 30.07 in 10.0 mi WSW 3.5 mph - N/A   Clear
11:35 AM 57.0 °F - 42.3 °F 58% 30.06 in 10.0 mi SW 4.6 mph - N/A   Clear
11:55 AM 58.6 °F - 42.3 °F 55% 30.06 in 10.0 mi Calm Calm - N/A   Clear
12:15 PM 60.8 °F - 42.4 °F 51% 30.05 in 10.0 mi WNW 3.5 mph - N/A   Clear
12:35 PM 61.5 °F - 42.3 °F 49% 30.04 in 10.0 mi SW 4.6 mph - N/A   Clear
12:55 PM 62.4 °F - 41.0 °F 45% 30.04 in 10.0 mi SW 5.8 mph - N/A   Clear
1:15 PM 63.5 °F - 41.7 °F 45% 30.03 in 10.0 mi SW 4.6 mph - N/A   Clear
1:35 PM 64.4 °F - 41.2 °F 43% 30.02 in 10.0 mi SSW 8.1 mph - N/A   Clear
1:55 PM 65.5 °F - 39.7 °F 39% 30.01 in 10.0 mi West 5.8 mph - N/A   Clear
2:15 PM 66.4 °F - 38.8 °F 36% 30.00 in 10.0 mi SW 5.8 mph - N/A   Clear
2:35 PM 66.4 °F - 37.8 °F 35% 30.00 in 10.0 mi West 3.5 mph - N/A   Clear
2:55 PM 67.5 °F - 38.1 °F 34% 29.99 in 10.0 mi SSW 8.1 mph - N/A   Clear
3:15 PM 66.9 °F - 37.8 °F 34% 29.98 in 10.0 mi West 4.6 mph - N/A   Clear
3:35 PM 67.6 °F - 37.9 °F 34% 29.98 in 10.0 mi WSW 5.8 mph - N/A   Clear
3:55 PM 67.8 °F - 39.4 °F 35% 29.98 in 10.0 mi SSW 8.1 mph - N/A   Clear
4:15 PM 67.8 °F - 38.5 °F 34% 29.97 in 10.0 mi SSW 9.2 mph - N/A   Clear
4:35 PM 67.6 °F - 37.8 °F 33% 29.97 in 10.0 mi SW 9.2 mph - N/A   Clear
4:55 PM 67.6 °F - 37.4 °F 33% 29.98 in 10.0 mi WSW 5.8 mph - N/A   Clear
5:15 PM 67.1 °F - 37.2 °F 33% 29.98 in 10.0 mi SW 11.5 mph - N/A   Clear
5:35 PM 66.4 °F - 37.2 °F 34% 29.99 in 10.0 mi SW 5.8 mph - N/A   Clear
5:55 PM 64.9 °F - 39.0 °F 39% 29.99 in 10.0 mi SW 5.8 mph - N/A   Clear
6:15 PM 63.7 °F - 40.1 °F 42% 30.00 in 10.0 mi SW 4.6 mph - N/A   Clear
6:35 PM 62.6 °F - 40.5 °F 44% 30.00 in 10.0 mi SW 3.5 mph - N/A   Clear
6:55 PM 58.8 °F - 41.9 °F 53% 30.01 in 10.0 mi SSW 4.6 mph - N/A   Clear
7:15 PM 58.1 °F - 41.9 °F 55% 30.01 in 10.0 mi SSW 3.5 mph - N/A   Clear
7:35 PM 58.1 °F - 42.3 °F 56% 30.02 in 10.0 mi SSW 4.6 mph - N/A   Clear
7:55 PM 56.3 °F - 43.0 °F 61% 30.02 in 10.0 mi SSW 4.6 mph - N/A   Clear
8:15 PM 54.3 °F - 43.2 °F 66% 30.02 in 10.0 mi SSW 4.6 mph - N/A   Clear
8:35 PM 54.5 °F - 43.0 °F 65% 30.02 in 10.0 mi South 5.8 mph - N/A   Clear
8:55 PM 56.1 °F - 43.0 °F 61% 30.02 in 10.0 mi South 4.6 mph - N/A   Clear
9:15 PM 52.7 °F - 42.8 °F 69% 30.02 in 10.0 mi South 4.6 mph - N/A   Clear
9:35 PM 53.1 °F - 42.8 °F 68% 30.02 in 10.0 mi South 3.5 mph - N/A   Clear
9:55 PM 52.0 °F - 42.6 °F 70% 30.02 in 10.0 mi Calm Calm - N/A   Clear
10:15 PM 51.3 °F - 42.4 °F 72% 30.02 in 10.0 mi SSE 3.5 mph - N/A   Clear
10:35 PM 51.8 °F - 42.4 °F 70% 30.01 in 10.0 mi Calm Calm - N/A   Clear
10:55 PM 50.4 °F - 42.1 °F 73% 30.01 in 10.0 mi Calm Calm - N/A   Clear
11:15 PM 50.4 °F - 41.9 °F 73% 30.00 in 10.0 mi South 3.5 mph - N/A   Clear
11:35 PM 50.4 °F - 41.9 °F 73% 30.00 in 10.0 mi Calm Calm - N/A   Clear
11:55 PM 49.6 °F - 41.9 °F 75% 29.99 in 10.0 mi Calm Calm - N/A   Clear